Location: Kings Park
(40.8862°N, 73.2573°W)
Time: 07:32:06
(UTC+00:00)

COSMO-SKYMED 1 - Pass Details

Date: 29 October 2020
Orbit: 621 x 623 km, 97.9° (Epoch: 02 December)

Event Time Altitude Azimuth Distance (km) Brightness Sun altitude
Rises 23:31:24 0° 4° (N) 2,912 6.0 -19.3°
Reaches altitude 10° 23:33:42 10° 357° (N) 2,000 5.2 -19.7°
Maximum altitude 23:37:45 40° 289° (WNW) 924 3.9 -20.5°
Drops below altitude 10° 23:41:47 10° 220° (SW) 1,985 5.7 -21.2°
Sets 23:44:03 0° 212° (SSW) 2,887 6.4 -21.7°
